Regional Weather Roundup
Issued by NWS Cleveland, OH

Home | Current Version | Previous Version | Text Only | Print | Product List | Glossary On
Versions: 1 2 3 4 5 6 7 8 9 10 11 12 13 14 15 16 17 18 19 20 21 22 23 24 25 26 27 28 29 30 31 32 33 34 35 36 37 38 39 40 41 42 43 44 45 46 47 48 49 50
000
ASUS41 KCLE 251712
RWRCLE
OHIO REGIONAL WEATHER ROUNDUP
NATIONAL WEATHER SERVICE WILMINGTON, OH
100 PM EDT SUN JUN 25 2017

NOTE: "FAIR" INDICATES FEW OR NO CLOUDS BELOW 12,000 FEET WITH NO
SIGNIFICANT WEATHER AND/OR OBSTRUCTIONS TO VISIBILITY.

OHZ001>008-015>018-024>027-034-035-043-044-251800-
   NORTHWEST OHIO

CITY           SKY/WX    TMP DP  RH WIND       PRES   REMARKS
DEFIANCE       PTSUNNY   67  45  45 NW15G22   30.09S
FINDLAY        FAIR      72  43  35 W21G28    30.08S
TOLEDO EXPRESS PTSUNNY   67  46  47 W9G20     30.06S
TOLEDO EXEC    PTSUNNY   71  47  42 W16G29    30.07R
LIMA           FAIR      69  48  47 W17G26    30.11S
$$

OHZ009>014-019>023-028>033-038-089-251800-
   NORTHEAST OHIO

CITY           SKY/WX    TMP DP  RH WIND       PRES   REMARKS
CLE-HOPKINS    FAIR      75  49  39 W23       30.04S
CLE-LAKEFRONT  FAIR      71  53  52 W28G36    30.00F
CUY CO. ARPT   PTSUNNY   70  52  52 W17G28    30.03S
LORAIN-ELYRIA  FAIR      71  46  40 W22G28    30.05R
ASHTABULA      PTSUNNY   71  46  40 W15G23    30.01F
AKRON-CANTON   FAIR      74  44  34 W22G31    30.05F
WOOSTER        FAIR      70  48  45 W20G37    30.06F
MANSFIELD      FAIR      71  47  42 SW16G28   30.08S
YOUNGSTOWN     PTSUNNY   70  46  42 W15G22    30.04F
$$

OHZ042-051>053-060>062-070>072-077>081-251800-
  SOUTHWEST OHIO

CITY           SKY/WX    TMP DP  RH WIND       PRES   REMARKS
CINC-COVINGTON FAIR      76  50  40 W14G25    30.15F
CINC-LUNKEN    FAIR      77  52  41 W14G28    30.15F
HAMILTON       FAIR      76  52  43 W15G24    30.15F
DAYTON         FAIR      73  49  42 W16G25    30.14S
WRIGHT-PAT AFB MOSUNNY   73  50  43 W16G22    30.12S
DAYTON GENERAL FAIR      74  47  38 W18G29    30.13F
WILMINGTON     FAIR      75  50  41 W23G31    30.13F
$$

OHZ036-037-039>041-045>050-054>059-063>069-073>076-082>088-251800-
  CENTRAL AND SOUTHEAST OHIO

CITY           SKY/WX    TMP DP  RH WIND       PRES   REMARKS
COLUMBUS       FAIR      74  48  39 W18G29    30.10F
OSU AIRPORT    FAIR      74  50  42 W21G31    30.10F
BOLTON FIELD   MOSUNNY   73  50  43 W18G26    30.12F
RICKENBACK AFB FAIR      75  49  38 W22G31    30.11F
NEWARK         FAIR      76  45  33 W17G26    30.10F
MARION         FAIR      72  47  40 W16G31    30.10S
LANCASTER      FAIR      74  51  44 W17G25    30.12F
ZANESVILLE     FAIR      74  47  38 W16G25    30.11F
NEW PHILLY     FAIR      74  48  39 SW9G20    30.09F
$$



USA.gov is the U.S. government's official web portal to all federal, state and local government web resources and services.